TimeAKDT,TemperatureF,Dew PointF,Humidity,Sea Level PressureIn,VisibilityMPH,Wind Direction,Wind SpeedMPH,Gust SpeedMPH,PrecipitationIn,Events,Conditions,WindDirDegrees,DateUTC
12:16 AM,55.4,50.0,82,30.07,10.0,SSE,4.6,-,N/A,,Overcast,150,2013-07-02 08:16:00
12:36 AM,55.4,50.0,82,30.08,10.0,Calm,Calm,-,N/A,,Overcast,0,2013-07-02 08:36:00
12:56 AM,55.4,48.2,77,30.08,10.0,Calm,Calm,-,N/A,,Mostly Cloudy,0,2013-07-02 08:56:00
1:16 AM,53.6,48.2,82,30.09,10.0,Calm,Calm,-,N/A,,Overcast,0,2013-07-02 09:16:00
1:36 AM,55.4,48.2,77,30.09,10.0,Calm,Calm,-,N/A,,Overcast,0,2013-07-02 09:36:00
1:56 AM,55.4,48.2,77,30.09,10.0,Calm,Calm,-,N/A,,Overcast,0,2013-07-02 09:56:00
2:16 AM,53.6,48.2,82,30.09,10.0,Calm,Calm,-,N/A,,Overcast,0,2013-07-02 10:16:00
2:36 AM,53.6,48.2,82,30.09,10.0,Calm,Calm,-,N/A,,Overcast,0,2013-07-02 10:36:00
2:56 AM,53.6,48.2,82,30.09,10.0,Calm,Calm,-,N/A,,Overcast,0,2013-07-02 10:56:00
3:16 AM,53.6,48.2,82,30.10,10.0,NNW,4.6,-,N/A,,Overcast,330,2013-07-02 11:16:00
3:36 AM,53.6,46.4,77,30.10,10.0,Calm,Calm,-,N/A,,Overcast,0,2013-07-02 11:36:00
3:56 AM,53.6,48.2,82,30.10,10.0,Calm,Calm,-,N/A,,Overcast,0,2013-07-02 11:56:00
4:16 AM,53.6,48.2,82,30.11,10.0,Calm,Calm,-,N/A,,Overcast,0,2013-07-02 12:16:00
4:36 AM,53.6,48.2,82,30.11,10.0,Calm,Calm,-,N/A,,Overcast,0,2013-07-02 12:36:00
4:56 AM,53.6,48.2,82,30.12,10.0,Calm,Calm,-,N/A,,Overcast,0,2013-07-02 12:56:00
5:16 AM,53.6,48.2,82,30.12,10.0,SW,3.5,-,N/A,,Overcast,230,2013-07-02 13:16:00
5:36 AM,53.6,48.2,82,30.12,10.0,Calm,Calm,-,N/A,,Overcast,0,2013-07-02 13:36:00
5:56 AM,53.6,48.2,82,30.12,10.0,Calm,Calm,-,N/A,,Mostly Cloudy,0,2013-07-02 13:56:00
6:16 AM,53.6,48.2,82,30.13,10.0,Calm,Calm,-,N/A,,Mostly Cloudy,0,2013-07-02 14:16:00
6:36 AM,53.6,48.2,82,30.13,10.0,Calm,Calm,-,N/A,,Mostly Cloudy,0,2013-07-02 14:36:00
6:56 AM,53.6,48.2,82,30.13,10.0,Calm,Calm,-,N/A,,Overcast,0,2013-07-02 14:56:00
7:16 AM,53.6,46.4,77,30.13,10.0,North,3.5,-,N/A,,Overcast,350,2013-07-02 15:16:00
7:36 AM,55.4,48.2,77,30.14,10.0,Calm,Calm,-,N/A,,Overcast,0,2013-07-02 15:36:00
7:56 AM,55.4,48.2,77,30.14,10.0,Calm,Calm,-,N/A,,Mostly Cloudy,0,2013-07-02 15:56:00
8:16 AM,55.4,48.2,77,30.14,10.0,Calm,Calm,-,N/A,,Mostly Cloudy,0,2013-07-02 16:16:00
8:36 AM,55.4,48.2,77,30.14,10.0,NW,5.8,-,N/A,,Mostly Cloudy,320,2013-07-02 16:36:00
8:56 AM,55.4,48.2,77,30.15,10.0,NW,5.8,-,N/A,,Mostly Cloudy,320,2013-07-02 16:56:00
9:16 AM,55.4,48.2,77,30.15,10.0,NW,6.9,-,N/A,,Mostly Cloudy,320,2013-07-02 17:16:00
9:36 AM,55.4,46.4,72,30.15,10.0,NNW,4.6,-,N/A,,Mostly Cloudy,330,2013-07-02 17:36:00
9:56 AM,55.4,46.4,72,30.15,10.0,North,4.6,-,N/A,,Mostly Cloudy,350,2013-07-02 17:56:00
10:16 AM,57.2,48.2,72,30.15,10.0,North,5.8,-,N/A,,Mostly Cloudy,350,2013-07-02 18:16:00
10:36 AM,57.2,46.4,67,30.16,10.0,Calm,Calm,-,N/A,,Mostly Cloudy,0,2013-07-02 18:36:00
10:56 AM,57.2,46.4,67,30.16,10.0,North,4.6,-,N/A,,Mostly Cloudy,10,2013-07-02 18:56:00
11:16 AM,59.0,48.2,67,30.16,10.0,North,8.1,-,N/A,,Mostly Cloudy,350,2013-07-02 19:16:00
11:36 AM,59.0,48.2,67,30.17,10.0,North,6.9,-,N/A,,Mostly Cloudy,350,2013-07-02 19:36:00
11:56 AM,59.0,46.4,63,30.17,10.0,NW,8.1,-,N/A,,Mostly Cloudy,320,2013-07-02 19:56:00
12:16 PM,59.0,46.4,63,30.18,10.0,NNW,5.8,-,N/A,,Mostly Cloudy,330,2013-07-02 20:16:00
12:36 PM,60.8,46.4,59,30.18,10.0,NNW,5.8,-,N/A,,Mostly Cloudy,340,2013-07-02 20:36:00
12:56 PM,59.0,46.4,63,30.18,10.0,North,8.1,-,N/A,,Mostly Cloudy,350,2013-07-02 20:56:00
1:16 PM,60.8,46.4,59,30.18,10.0,NNW,5.8,-,N/A,,Mostly Cloudy,330,2013-07-02 21:16:00
1:36 PM,60.8,46.4,59,30.18,10.0,NNW,9.2,-,N/A,,Mostly Cloudy,330,2013-07-02 21:36:00
1:56 PM,62.6,44.6,52,30.19,10.0,WNW,6.9,-,N/A,,Mostly Cloudy,290,2013-07-02 21:56:00
2:16 PM,62.6,46.4,55,30.19,10.0,WNW,9.2,-,N/A,,Mostly Cloudy,300,2013-07-02 22:16:00
2:36 PM,62.6,46.4,55,30.19,10.0,NW,9.2,-,N/A,,Mostly Cloudy,320,2013-07-02 22:36:00
2:56 PM,62.6,44.6,52,30.18,10.0,WNW,9.2,-,N/A,,Mostly Cloudy,300,2013-07-02 22:56:00
3:16 PM,62.6,46.4,55,30.18,10.0,NW,9.2,-,N/A,,Mostly Cloudy,320,2013-07-02 23:16:00
3:36 PM,62.6,46.4,55,30.18,10.0,WNW,9.2,-,N/A,,Mostly Cloudy,290,2013-07-02 23:36:00
3:56 PM,62.6,44.6,52,30.18,10.0,West,9.2,-,N/A,,Mostly Cloudy,270,2013-07-02 23:56:00
4:16 PM,62.6,44.6,52,30.18,10.0,West,6.9,-,N/A,,Mostly Cloudy,280,2013-07-03 00:16:00
4:36 PM,60.8,44.6,55,30.18,10.0,NW,4.6,-,N/A,,Mostly Cloudy,310,2013-07-03 00:36:00
4:56 PM,62.6,46.4,55,30.18,10.0,WNW,6.9,-,N/A,,Mostly Cloudy,290,2013-07-03 00:56:00
5:16 PM,62.6,44.6,52,30.18,10.0,West,6.9,-,N/A,,Mostly Cloudy,280,2013-07-03 01:16:00
5:36 PM,60.8,44.6,55,30.18,10.0,West,6.9,-,N/A,,Mostly Cloudy,270,2013-07-03 01:36:00
5:56 PM,60.8,46.4,59,30.18,10.0,West,8.1,-,N/A,,Mostly Cloudy,280,2013-07-03 01:56:00
6:16 PM,60.8,46.4,59,30.18,10.0,West,8.1,-,N/A,,Mostly Cloudy,270,2013-07-03 02:16:00
6:36 PM,60.8,46.4,59,30.18,10.0,West,9.2,-,N/A,,Mostly Cloudy,270,2013-07-03 02:36:00
6:56 PM,60.8,46.4,59,30.18,10.0,West,11.5,-,N/A,,Mostly Cloudy,270,2013-07-03 02:56:00
7:36 PM,57.2,46.4,67,30.18,10.0,West,10.4,-,N/A,,Mostly Cloudy,260,2013-07-03 03:36:00
7:56 PM,57.2,46.4,67,30.18,10.0,West,10.4,-,N/A,,Mostly Cloudy,260,2013-07-03 03:56:00
8:16 PM,57.2,46.4,67,30.18,10.0,West,9.2,-,N/A,,Mostly Cloudy,260,2013-07-03 04:16:00
8:36 PM,57.2,46.4,67,30.18,10.0,West,8.1,-,N/A,,Mostly Cloudy,260,2013-07-03 04:36:00
8:56 PM,57.2,46.4,67,30.18,10.0,West,8.1,-,N/A,,Mostly Cloudy,260,2013-07-03 04:56:00
9:16 PM,57.2,46.4,67,30.18,10.0,WSW,6.9,-,N/A,,Mostly Cloudy,240,2013-07-03 05:16:00
9:36 PM,57.2,46.4,67,30.18,10.0,West,3.5,-,N/A,,Mostly Cloudy,260,2013-07-03 05:36:00
9:56 PM,55.4,46.4,72,30.18,10.0,WSW,6.9,-,N/A,,Mostly Cloudy,250,2013-07-03 05:56:00
10:16 PM,57.2,46.4,67,30.19,10.0,WSW,4.6,-,N/A,,Mostly Cloudy,250,2013-07-03 06:16:00
10:36 PM,57.2,46.4,67,30.19,10.0,WSW,3.5,-,N/A,,Mostly Cloudy,250,2013-07-03 06:36:00
10:56 PM,57.2,46.4,67,30.19,10.0,WSW,3.5,-,N/A,,Mostly Cloudy,240,2013-07-03 06:56:00
11:16 PM,55.4,46.4,72,30.19,10.0,WSW,4.6,-,N/A,,Overcast,240,2013-07-03 07:16:00
11:36 PM,55.4,46.4,72,30.19,10.0,West,3.5,-,N/A,,Overcast,260,2013-07-03 07:36:00
11:56 PM,55.4,46.4,72,30.19,10.0,Calm,Calm,-,N/A,,Overcast,0,2013-07-03 07:56:00